Tracking 20083 objects as of 10-Dec-2019
HD Live streaming from Space Station
objects crossing your sky now

NINGXIA-1 1

Track NINGXIA-1 1 now!
10-day predictions


NORAD ID: 44779
Int'l Code: 2019-076A
Perigee: 894.4 km
Apogee: 905.7 km
Inclination: 45.0 °
Period: 102.8 minutes
Semi major axis: 7271 km
RCS: Unknown
Launch date: November 13, 2019
Source: People's Republic of China (PRC)
Launch site: Taiyaun Space Center, China (TSC)
aabbcc
Your satellite tracking list
Your tracking list is empty




NASA's NSSDC Master Catalog

Two Line Element Set (TLE):
1 44779U 19076A   19344.50978878 -.00000129  00000-0  00000+0 0  9999
2 44779  45.0118  13.9647 0007760  11.2800 348.8202 14.00254638  3827
Source of the keplerian elements: AFSPC